www.pogodaiklimat.ru

АРХИВ ПОГОДЫ в Харькове

Время (UTC), дата Ветер
(напр.,м/с)
 
Видим.   Явления Облачность Т
(С)
Тd
(С)
f
(%)
Тe
(С)
Тes
(С)
Комфортность P
(гПа)
Po
(гПа)
Тmin
(С)
Tmax
(С)
R
(мм)
S
(см)
09 26.11 З 3 10 км 9/9 1050 м
[Sc]
+0.8 -2.8 77 -4 -3 по сезону 1019.0 999.6
12 26.11 З 5 10 км 10/10 840 м
[Sc]
+0.9 -4.0 70 -5 -5 по сезону 1018.1 998.7
15 26.11 ЮЗ 5 10 км 9/9 660 м
[Sc]
-0.4 -4.4 74 -6 -6 по сезону 1017.1 997.6
18 26.11 ЮЗ 6 10 км 9/0
[Ac trans]
-1.0 -4.2 79 -8 -8 по сезону 1015.1 995.6 +1.4
21 26.11 ЮЗ 8 10 км 9/3 300 м
[St Ac trans]
-0.9 -3.4 83 -9 -9 прохладно 1013.4 994.0
00 27.11 ЮЗ 9 10 км 9/6 360 м
[St Ac trans]
-0.6 -3.0 84 -9 -9 по сезону 1011.2 991.8
03 27.11 ЮЗ 9 10 км 6/5 400 м
[St Ac trans]
-0.3 -2.7 84 -8 -8 по сезону 1008.9 989.6
06 27.11 ЮЗ 9 10 км 9/8 270 м
[St Ac trans]
-0.3 -2.4 86 -8 -8 по сезону 1007.6 988.3 -1.0 0
09 27.11 ЮЗ 5 5000 м слабый дождь 10/10 150 м
[Sc]
+1.2 +0.4 94 -5 -5 по сезону 1006.4 987.3
12 27.11 ЮЗ 4 5000 м слабый дождь 10/8 120 м
[Frnb As op]
+2.0 +1.2 94 -3 -3 по сезону 1005.3 986.2
15 27.11 Ю 5 5000 м слабый дождь 10/10 150 м
[Sc]
+2.4 +1.9 96 -3 -3 по сезону 1004.7 985.7
18 27.11 Ю 4 1500 м слабый дождь {ливн. осадки} 10/8 90 м
[Frnb As op]
+2.9 +2.4 97 -2 -2 по сезону 1003.1 984.1 +2.9 2
21 27.11 Ю 2 1300 м слабый дождь 10/8 120 м
[Frnb As op]
+3.5 +3.0 97 0 0 тепло 1000.9 982.0
00 28.11 Ю 3 5000 м слабый ливневой дождь 10/10 120 м
[Cb cap]
+4.6 +4.1 97 +1 +1 тепло 998.0 979.3
03 28.11 З 4 4000 м слабый ливневой дождь 10/10 150 м
[Cb cap]
+2.3 +1.8 96 -3 -3 по сезону 998.0 979.1
06 28.11 З 3 10 км в посл. час ливневой снег 10/10 120 м
[Cb cap]
+1.1 +0.6 96 -4 -4 по сезону 1000.5 981.5 +1.1 10
09 28.11 З 6 10 км 9/9 300 м
[Cb cap]
+2.4 0.0 84 -4 -3 по сезону 1003.3 984.3
12 28.11 ЮЗ 6 10 км {ливн. осадки} 9/9 700 м
[Cb cap]
+2.6 -0.1 82 -3 -3 по сезону 1005.2 986.2
15 28.11 З 7 10 км в посл. час крупа {ливн. осадки} 9/9 630 м
[Cb cap]
+1.4 -3.0 72 -5 -5 по сезону 1007.6 988.4
18 28.11 ЮЗ 6 10 км {ливн. осадки} 4/4 1000 м
[Sc]
-0.2 -3.8 77 -7 -7 по сезону 1009.0 989.7 +3.3 0.0
21 28.11 ЮЗ 4 10 км 3/0
[Ac trans]
-1.2 -4.1 81 -7 -7 по сезону 1010.7 991.3
00 29.11 ЮЗ 4 10 км 3/0
[Ac trans]
-2.1 -3.6 89 -8 -8 по сезону 1011.7 992.2
03 29.11 ЮЗ 3 10 км 8/8 600 м
[Sc]
-2.5 -3.8 91 -8 -8 по сезону 1012.6 993.1
06 29.11 З 6 4600 м слабый ливневой снег 10/10 600 м
[Cb cap]
-2.2 -4.7 83 -9 -9 по сезону 1014.5 994.9 -3.1 0.3 0
09 29.11 З 6 10 км {ливн. осадки} 5/4 600 м
[Sc Ac trans]
-2.2 -9.8 56 -9 -8 прохладно 1015.8 996.2
12 29.11 ЮЗ 5 10 км {ливн. осадки} 4/0
[Ac trans]
-1.8 -10.1 53 -8 -7 прохладно 1015.7 996.1
15 29.11 ЮЗ 1 10 км 9/0
[Ac trans]
-2.9 -9.1 62 -5 -5 по сезону 1016.6 996.9
18 29.11 В 2 3000 м слабый ливневой снег 10/10 300 м
[Cb cap]
-4.0 -6.2 85 -8 -8 по сезону 1017.2 997.5 -1.8 0.2
21 29.11 С 5 4200 м слабый ливневой снег 10/10 300 м
[Cb cap]
-4.9 -6.2 91 -12 -12 холодно 1018.8 999.0
00 30.11 С 3 10 км слабый ливневой снег 10/10 300 м
[Cb cap]
-5.6 -6.7 92 -11 -11 прохладно 1020.2 1000.3
03 30.11 С 3 10 км {ливн. осадки} ясно -9.0 -10.1 92 -15 -15 очень
холодно
1022.2 1002.0
06 30.11 СЗ 4 10 км {ливн. осадки} ясно -11.0 -12.2 91 -18 -18 очень
холодно
1023.7 1003.3 -12.0 2 4
09 30.11 З 2 10 км ясно -8.7 -11.1 83 -13 -11 холодно 1024.0 1003.8
12 30.11 СЗ 1 10 км 4/4 300 м
[Sc]
-7.4 -11.3 74 -10 -9 прохладно 1022.9 1002.8
15 30.11 З 2 10 км 3/3 600 м
[Sc]
-10.2 -12.5 83 -15 -15 очень
холодно
1023.0 1002.7
18 30.11 ЮЗ 2 10 км в посл. час снег 9/9 500 м
[Sc]
-12.0 -13.9 86 -17 -17 очень
холодно
1022.6 1002.1 -7.0 0.0
21 30.11 Ю 2 10 км 5/5 300 м
[Sc]
-14.0 -15.3 90 -19 -19 очень
холодно
1021.8 1001.2
00 1.12 ЮВ 3 10 км 8/0
[Ci fib]
-13.8 -15.4 88 -20 -20 очень
холодно
1020.0 999.5
03 1.12 ЮВ 3 10 км 6/0
[Ac trans Ci fib]
-12.5 -13.8 90 -19 -19 очень
холодно
1018.3 997.9
06 1.12 ЮВ 4 10 км 9/8 750 м
[Sc Ac trans]
-10.2 -11.5 90 -17 -17 очень
холодно
1017.2 997.0 -15.4 4
09 1.12 Ю 4 10 км слабый снег 10/10 540 м
[Sc]
-6.5 -8.9 83 -13 -13 холодно 1015.3 995.4
12 1.12 Ю 5 4000 м слабый снег 10/8 330 м
[Frnb As op]
-5.0 -7.1 85 -12 -12 холодно 1013.6 993.9
15 1.12 ЮВ 5 10 км слабый снег 10/8 300 м
[Frnb As op]
-5.0 -6.3 91 -12 -12 холодно 1012.9 993.2
18 1.12 ЮВ 5 10 км слабый снег 10/8 300 м
[Frnb As op]
-5.1 -6.1 93 -12 -12 холодно 1011.5 991.8 -5.0 1
21 1.12 Ю 5 5000 м слабый снег 10/6 300 м
[Frnb As op]
-4.3 -5.5 91 -11 -11 прохладно 1010.2 990.6
00 2.12 Ю 6 4000 м слабый снег 10/8 270 м
[Frnb As op]
-3.8 -4.6 94 -11 -11 прохладно 1008.2 988.7
03 2.12 Ю 6 2800 м слабый снег 10/8 240 м
[Frnb As op]
-3.9 -4.7 94 -12 -12 прохладно 1006.7 987.2
06 2.12 ЮВ 5 5000 м слабый снег 10/8 270 м
[Frnb As op]
-3.7 -4.5 94 -11 -11 прохладно 1006.3 986.8 -5.1 2 6
09 2.12 Ю 5 10 км слабый снег 10/6 300 м
[Frnb As op]
-3.0 -4.7 88 -10 -10 прохладно 1005.7 986.3
12 2.12 ЮВ 6 10 км {снег} 10/6 660 м
[Sc Ac und]
-2.4 -6.0 76 -9 -9 прохладно 1004.9 985.5
15 2.12 В 6 10 км слабый снег 10/10 1170 м
[Sc]
-3.1 -4.8 88 -11 -11 прохладно 1005.0 985.6
18 2.12 В 5 10 км {ливн. осадки, снег} 10/10 1200 м
[Sc]
-3.8 -5.6 87 -11 -11 прохладно 1004.6 985.1 -2.4 0.2
21 2.12 В 6 4000 м слабый снег 10/10 1000 м
[Sc]
-3.7 -5.5 87 -11 -11 прохладно 1003.8 984.3
00 3.12 В 7 2200 м слабый снег 10/6 330 м
[Frnb As op]
-4.0 -5.2 91 -12 -12 прохладно 1002.3 982.9
03 3.12 В 6 600 м ливневой снег 10/10 270 м
[Cb cap]
-3.5 -4.3 94 -11 -11 прохладно 1000.7 981.3
06 3.12 СВ 6 900 м сильный снег {ливн. осадки} 10/8 150 м
[Frnb As op]
-3.6 -4.1 96 -11 -11 прохладно 1000.6 981.2 -4.0 9 11

 

Местоположение метеостанции Харьков (Харьковская область, Украина): широта 49.97 долгота 36.13 высота над уровнем моря 155 м.

В архиве по умолчанию представлена погода в Харькове за последнюю неделю. Архивные данные за месяц целиком и за предыдущие месяцы, начиная с января 2011 года, Вы можете получить, выбрав интересующий диапазон дат из раскрывающегося списка и нажав кнопку "Ввод!".

Внимание! Время в таблицах - всемирное. Для получения местного времени необходимо прибавить поправку, которая в Харькове равна 2 ч.

Ветер - указаны скорость ветра в м/с - средняя за 10 мин, порывы в срок и между сроками (в фигурных скобках) и направление, откуда дует ветер: С - северный, СВ - северо-восточный, В - восточный, ЮВ - юго-восточный, Ю - южный, ЮЗ - юго-западный, З - западный, СЗ - северо-западный.
Видимость - горизонтальная дальность видимости в метрах или километрах. При видимости от 1 до 10 км при отсутствии осадков обычно наблюдается дымка, при ухудшении видимости до 1 км и менее - туман. В сухую погоду видимость может ухудшаться дымом, пылью или мглою.
Явления - указаны атмосферные явления, наблюдавшиеся в срок или в последний час перед сроком; фигурными скобками обозначены явления, наблюдавшиеся между сроками (за 1-3 часа до срока); квадратными скобками обозначены град или гололедные отложения с указанием их диаметра в мм.
Облачность - указаны через наклонную черту общая и нижняя облачность в баллах и высота нижней границы облаков в метрах; квадратными скобками обозначены формы облаков: Ci - перистые, Cs - перисто-слоистые, Cc - перисто-кучевые, Ac - высококучевые, As - высокослоистые, Sc - слоисто-кучевые, Ns - слоисто-дождевые, Cu - кучевые, Cb - кучево-дождевые. Подробнее классификацию облаков см. в Атласе облаков (PDF).
T - Температура воздуха - температура, измеренная на высоте 2 м над землей.
Td - Температура точки росы - температура, при понижении до которой содержащийся в воздухе водяной пар достигнет насыщения.
f - Относительная влажность воздуха - влажноcть воздуха, измеренная на высоте 2 м над землей.
Te - Эффективная температура - температура, которую ощущает одетый по сезону человек в тени. Характеристика душности погоды. При расчете учитывается влияние влажности воздуха и скорости ветра на теплоощущения человека.
Tes - Эффективная температура на солнце - температура, которую ощущает человек, с поправкой на солнечный нагрев. Характеристика знойности погоды. Зависит от высоты солнца над горизонтом, облачности и скорости ветра. Ночью, в пасмурную погоду, а также при ветре 12 м/с и более поправка равна нулю.
P - Атмосферное давление - приведенное к уровню моря атмосферное давление.
Po - Атмосферное давление - измеренное на уровне метеостанции атмосферное давление.
Tmin - Минимальная температура - минимум температуры воздуха на высоте 2 м над землей.
Tmax - Максимальная температура - максимум температуры воздуха на высоте 2 м над землей.
R - Количество осадков - Количество выпавших осадков, мм. При наведении курсора мыши на число - период времени, за который выпало указанное количество осадков.
S - Снежный покров - Высота снежного покрова, см. При наведении курсора мыши на число - состояние снежного покрова и степень покрытия местности в баллах.